DW8215 Weather Reports


Display with metric or nautical units.
time (UTC)temp
F
wind
direction
speed
MPH
gust
MPH
rain 1hr
in
rain 24hr
in
rain mn
in
humidity
%
barometer
mb
20260903151501 69 360 1.0 3.0 0.00 0.00 0.00 82 1015.2
20260903150107 68 360 0.0 4.0 0.00 0.00 0.00 87 1015.1
20260903144555 67 340 0.0 3.0 0.00 0.00 0.00 86 1015.3
20260903143101 65 141 0.0 0.0 0.00 0.00 0.00 92 1015.3
20260903141547 63 143 0.0 0.0 0.00 0.00 0.00 97 1015.5
20260903140043 61 143 0.0 0.0 0.00 0.00 0.00 98 1015.7
20260903134545 60 15 0.0 0.0 0.00 0.00 0.00 100 1015.5
20260903133039 59 15 0.0 0.0 0.00 0.00 0.00 100 1015.5
20260903131539 58 38 0.0 0.0 0.00 0.00 0.00 100 1015.6
20260903130039 57 141 0.0 0.0 0.00 0.00 0.00 100 1015.6
20260903124536 57 128 0.0 3.0 0.00 0.00 0.00 100 1015.3
20260903123033 56 355 0.0 0.0 0.00 0.00 0.00 100 1015.0
20260903121535 55 355 0.0 0.0 0.00 0.00 0.00 100 1015.0
20260903120038 54 355 0.0 0.0 0.00 0.00 0.00 99 1015.0
20260903114534 54 355 0.0 0.0 0.00 0.00 0.00 99 1015.0
20260903113031 54 355 0.0 0.0 0.00 0.00 0.00 99 1014.9
20260903111533 54 355 0.0 0.0 0.00 0.00 0.00 99 1014.6
20260903110027 54 355 0.0 0.0 0.00 0.00 0.00 99 1014.6
20260903104528 54 355 0.0 0.0 0.00 0.00 0.00 99 1014.6
20260903103026 54 355 0.0 0.0 0.00 0.00 0.00 99 1014.5
20260903101527 54 355 0.0 0.0 0.00 0.00 0.00 99 1014.5
20260903100023 54 355 0.0 0.0 0.00 0.00 0.00 98 1014.5
20260903094522 54 355 0.0 0.0 0.00 0.00 0.00 98 1014.5
20260903093121 55 355 0.0 0.0 0.00 0.00 0.00 99 1014.4
20260903091531 55 355 0.0 0.0 0.00 0.00 0.00 98 1014.4
20260903090024 55 355 0.0 0.0 0.00 0.00 0.00 98 1014.4
20260903084537 55 355 0.0 0.0 0.00 0.00 0.00 99 1014.5
20260903083016 55 355 0.0 0.0 0.00 0.00 0.00 98 1014.4
20260903081517 56 355 0.0 0.0 0.00 0.00 0.00 98 1014.5
20260903080014 56 355 0.0 0.0 0.00 0.00 0.00 98 1014.6
20260903074512 56 355 0.0 0.0 0.00 0.00 0.00 98 1014.5
20260903073013 56 355 0.0 0.0 0.00 0.00 0.00 98 1014.5
20260903071511 56 355 0.0 0.0 0.00 0.00 0.00 98 1014.4
20260903070018 56 355 0.0 0.0 0.00 0.00 0.00 98 1014.5
20260903064508 57 355 0.0 0.0 0.00 0.00 0.00 97 1014.5
20260903063007 57 355 0.0 0.0 0.00 0.00 0.00 98 1014.5
20260903061512 57 355 0.0 0.0 0.00 0.00 0.00 98 1014.4
20260903060003 58 355 0.0 0.0 0.00 0.00 0.00 97 1014.2
20260903054505 58 355 0.0 0.0 0.00 0.00 0.00 98 1014.2
20260903053101 58 355 0.0 0.0 0.00 0.00 0.00 98 1014.1
20260903051559 58 355 0.0 0.0 0.00 0.00 0.00 97 1013.9
20260903050056 58 355 0.0 0.0 0.00 0.00 0.00 97 1013.9
20260903044556 59 355 0.0 0.0 0.00 0.00 0.00 97 1014.0
20260903043056 59 355 0.0 0.0 0.00 0.00 0.00 97 1014.0
20260903041556 59 355 0.0 0.0 0.00 0.00 0.00 97 1014.0
20260903040052 59 355 0.0 0.0 0.00 0.00 0.00 96 1013.9
20260903034551 60 355 0.0 0.0 0.00 0.00 0.00 96 1014.0
20260903033053 60 355 0.0 0.0 0.00 0.00 0.00 96 1014.1
20260903031551 60 355 0.0 0.0 0.00 0.00 0.00 95 1013.9
20260903030046 61 355 0.0 0.0 0.00 0.00 0.00 95 1013.7
20260903024544 61 355 0.0 0.0 0.00 0.00 0.00 94 1013.6
20260903023043 62 355 0.0 0.0 0.00 0.00 0.00 94 1013.6
20260903021545 63 355 0.0 0.0 0.00 0.00 0.00 93 1013.5
20260903020059 63 355 0.0 0.0 0.00 0.00 0.00 91 1013.5
20260903014541 64 355 0.0 0.0 0.00 0.00 0.00 89 1013.4
20260903013040 65 355 0.0 0.0 0.00 0.00 0.00 89 1013.3
20260903011541 66 355 0.0 0.0 0.00 0.00 0.00 88 1013.1
20260903010039 66 355 0.0 0.0 0.00 0.00 0.00 87 1013.0
20260903004541 67 355 0.0 1.0 0.00 0.00 0.00 86 1012.9
20260903003037 68 355 1.0 2.0 0.00 0.00 0.00 85 1012.8
20260903001553 70 355 0.0 0.0 0.00 0.00 0.00 84 1012.7
20260903000042 71 355 0.0 0.0 0.00 0.00 0.00 79 1012.6
20260902234537 73 355 0.0 0.0 0.00 0.00 0.00 74 1012.6
20260902233036 76 355 0.0 0.0 0.00 0.00 0.00 68 1012.7
20260902231538 75 355 0.0 1.0 0.00 0.00 0.00 68 1012.6
20260902230034 75 302 0.0 0.0 0.00 0.00 0.00 67 1012.5
20260902224533 74 10 0.0 0.0 0.00 0.00 0.00 72 1012.5
20260902223032 75 5 0.0 4.0 0.00 0.00 0.00 68 1012.6
20260902221549 77 12 0.0 3.0 0.00 0.00 0.00 66 1012.5
20260902220032 78 5 1.0 3.0 0.00 0.00 0.00 65 1012.5
20260902214533 78 351 0.0 7.0 0.00 0.00 0.00 66 1012.4
20260902213033 79 360 1.0 5.0 0.00 0.00 0.00 63 1012.3
20260902211528 80 344 0.0 5.0 0.00 0.00 0.00 65 1012.3
20260902210031 80 303 1.0 4.0 0.00 0.00 0.00 64 1012.3
20260902204527 80 11 2.0 5.0 0.00 0.00 0.00 60 1012.2
20260902203030 80 17 1.0 4.0 0.00 0.00 0.00 62 1012.2
20260902201536 80 254 1.0 4.0 0.00 0.00 0.00 58 1012.2
20260902200027 80 315 2.0 5.0 0.00 0.00 0.00 63 1012.3
20260902194547 80 271 1.0 6.0 0.00 0.00 0.00 64 1012.4
20260902193024 80 190 0.0 5.0 0.00 0.00 0.00 64 1012.6
20260902191523 80 355 2.0 7.0 0.00 0.00 0.00 58 1012.6
20260902190019 79 303 3.0 9.0 0.00 0.00 0.00 64 1012.6
20260902184520 79 333 0.0 5.0 0.00 0.00 0.00 67 1012.3
20260902183019 79 350 0.0 5.0 0.00 0.00 0.00 69 1012.4
20260902181518 79 327 0.0 2.0 0.00 0.00 0.00 68 1012.4
20260902180015 79 249 2.0 5.0 0.00 0.00 0.00 64 1012.6
20260902174514 78 221 1.0 4.0 0.00 0.00 0.00 64 1012.6
20260902173015 78 355 1.0 4.0 0.00 0.00 0.00 66 1012.4
20260902171514 79 276 1.0 4.0 0.00 0.00 0.00 64 1012.4
20260902170014 79 126 0.0 6.0 0.00 0.00 0.00 66 1012.4
20260902164512 78 355 0.0 7.0 0.00 0.00 0.00 67 1012.6
20260902163008 78 266 0.0 4.0 0.00 0.00 0.00 68 1012.7
20260902161506 77 221 1.0 7.0 0.00 0.00 0.00 65 1012.7
20260902160004 77 200 1.0 5.0 0.00 0.00 0.00 67 1012.7
20260902154501 76 215 1.0 5.0 0.00 0.00 0.00 69 1012.7
20260902153057 76 267 0.0 3.0 0.00 0.00 0.00 70 1012.8